Change the Weather History Date:

Sunday, August 4, 2013

  Actual Average Record
Temperature  
Mean Temperature 54 °F -  
Max Temperature 64 °F - - ()
Min Temperature 44 °F - - ()
Degree Days  
Heating Degree Days 11    
Growing Degree Days 4 (Base 50)    
Moisture  
Dew Point 48 °F    
Average Humidity 82    
Maximum Humidity 100    
Minimum Humidity 59    
Precipitation  
Precipitation 0.00 in - - ()
Sea Level Pressure  
Sea Level Pressure 30.09 in    
Wind  
Wind Speed 6 mph ()    
Max Wind Speed 10 mph    
Max Gust Speed -    
Visibility 6.2 miles    
Events      
T = Trace of Precipitation, MM = Missing Value Source: Averaged Metar Reports

Daily Weather History Graph

Daily Weather History Graph

Search for Another Location

Airport or City:

Trip Planner

Search our weather history database for the weather conditions in past years. The results will help you decide how hot, cold, wet, or windy it might be!

Date:

Astronomy

Aug. 04, 2013 Rise Set
Actual Time 7:08 AM ACST 5:43 PM ACST
Civil Twilight 6:42 AM ACST 6:09 PM ACST
Nautical Twilight 6:12 AM ACST 6:39 PM ACST
Astronomical Twilight 5:43 AM ACST 7:08 PM ACST
Moon 4:52 AM ACST (8/4) 3:29 PM ACST (8/4)
Length of Visible Light 11h 27m
Length of Day
10h 35m
Waning Crescent, 7% of the Moon is Illuminated
Aug 4
Waning Crescent
Aug 7
New
Aug 14
First Quarter
Aug 21
Full
Aug 28
Last Quarter

Hourly Weather History & Observations

Time (ACST) Temp. Windchill Dew Point Humidity Pressure Visibility Wind Dir Wind Speed Gust Speed Precip Events Conditions
12:30 AM 53.6 °F - 51.8 °F 94% 30.09 in 6.2 mi West 4.6 mph - N/A   Overcast
1:30 AM 51.8 °F - 50.0 °F 94% 30.09 in 6.2 mi West 4.6 mph - N/A   Scattered Clouds
2:30 AM 48.2 °F - 46.4 °F 93% 30.06 in 6.2 mi West 4.6 mph - N/A   Unknown
3:30 AM 46.4 °F 42.9 °F 44.6 °F 93% 30.06 in 6.2 mi WNW 6.9 mph - N/A   Unknown
4:30 AM 46.4 °F 42.9 °F 44.6 °F 93% 30.09 in 6.2 mi WNW 6.9 mph - N/A   Unknown
5:30 AM 44.6 °F 40.7 °F 44.6 °F 100% 30.09 in 6.2 mi NW 6.9 mph - N/A   Unknown
6:30 AM 44.6 °F 40.7 °F 42.8 °F 93% 30.09 in 6.2 mi NW 6.9 mph - N/A   Unknown
7:30 AM 44.6 °F 39.7 °F 44.6 °F 100% 30.12 in 6.2 mi NW 9.2 mph - N/A   Unknown
8:30 AM 48.2 °F - 48.2 °F 100% 30.15 in 6.2 mi NNW 6.9 mph - N/A   Mostly Cloudy
9:30 AM 53.6 °F - 50.0 °F 88% 30.15 in 6.2 mi NW 8.1 mph - N/A   Mostly Cloudy
10:30 AM 57.2 °F - 46.4 °F 67% 30.15 in 6.2 mi NW 8.1 mph - N/A   Unknown
11:30 AM 59.0 °F - 48.2 °F 67% 30.15 in 6.2 mi West 9.2 mph - N/A   Mostly Cloudy
12:30 PM 60.8 °F - 48.2 °F 63% 30.12 in 6.2 mi West 9.2 mph - N/A   Scattered Clouds
1:30 PM 62.6 °F - 48.2 °F 59% 30.09 in 6.2 mi West 10.4 mph - N/A   Mostly Cloudy
2:30 PM 62.6 °F - 48.2 °F 59% 30.06 in 6.2 mi NW 9.2 mph - N/A   Overcast
3:30 PM 64.4 °F - 50.0 °F 59% 30.06 in 6.2 mi West 9.2 mph - N/A   Mostly Cloudy
4:30 PM 62.6 °F - 48.2 °F 59% 30.04 in 6.2 mi WNW 8.1 mph - N/A   Scattered Clouds
5:30 PM 60.8 °F - 50.0 °F 68% 30.06 in 6.2 mi NNW 5.8 mph - N/A   Scattered Clouds
6:30 PM 57.2 °F - 50.0 °F 77% 30.06 in 6.2 mi NNW 5.8 mph - N/A   Mostly Cloudy
7:30 PM 53.6 °F - 50.0 °F 88% 30.09 in 6.2 mi NNW 6.9 mph - N/A   Scattered Clouds
8:30 PM 51.8 °F - 48.2 °F 88% 30.09 in 6.2 mi NNW 6.9 mph - N/A   Unknown
9:30 PM 53.6 °F - 50.0 °F 88% 30.09 in 6.2 mi NW 9.2 mph - N/A   Unknown
10:30 PM 53.6 °F - 50.0 °F 88% 30.09 in 6.2 mi WNW 8.1 mph - N/A   Unknown
11:30 PM 50.0 °F - 48.2 °F 94% 30.09 in 6.2 mi NNW 8.1 mph - N/A   Unknown